LFKJLFKB

Guest
Details From LFKJ - Napoleon Bonaparte
To LFKB - Bastia Poretta
Flight Number -
Tags generated
Created
Modified
Stats Distance 51 nm / 94 km
Max Altitude 200 ft / 61 m
Waypoints 3
Social Downloads 15
Likes 0
Share

Download

Looking for another format? Having issues loading an existing format? Contact us
Advertisement - Login to hide

Notes

Basic altitude profile: - Ascent Rate: 2500ft/min - Ascent Speed: 250kts - Cruise Altitude: 35000ft - Cruise Speed: 420kts - Descent Rate: 1500ft/min - Descent Speed: 250kts Options: - Use NATs: yes - Use PACOTS: yes - Use low airways: yes - Use high airways: yes

Route

LFKJ BTA LFKB

ID Type Via Altitude (ft/m) Position (lat/lon) Dist (leg/tot) Name
O LFKJ APT - 0 / 0 41.92289 / 8.79959 - / 0 nm Napoleon Bonaparte
BTA VOR - 200 / 61 42.57369 / 9.47459 49 / 49 nm BASTIA PORETTA VOR-DME
O LFKB APT - 0 / 0 42.55251 / 9.48371 1 / 50 nm Bastia Poretta

Altitude Profile

Advertisement - Login to hide

LFKJ

Details ICAO LFKJ (AJA)
Name Napoleon Bonaparte
Region France
Timezone Europe/Paris (UTC+1.0)
Stats Elevation 19 ft / 6 m (AMSL)
Location 41.921700° 8.801090°
Runways 1
Magnetic Variation 2.993° E

METAR

LFKJ 272030Z AUTO 04003KT 9999 BKN022 OVC050 10/10 Q1005 NOSIG

Decode

TAF

TAF LFKJ 272000Z 2721/2821 05006KT 9999 BKN025 BKN040 PROB40 TEMPO 2810/2813 SCT050 FEW070TCU BKN070 OVC100 TEMPO 2815/2821 02015G25KT

Decode

Departure Runways

ID Width Length Bearing (true/mag) Surface Threshold Overrun Markings Lighting
02 148 ft / 45 m 7,904 ft / 2,409 m 24.84° / 21.85° CONCRETE 0 ft / 0 m 161 ft / 49 m PREC-APP CENTERLINE EDGE THRESHOLD REIL-OMNI
20 148 ft / 45 m 7,904 ft / 2,409 m 204.85° / 201.86° CONCRETE 741 ft / 226 m 230 ft / 70 m PREC-APP CENTERLINE EDGE THRESHOLD REIL-OMNI

LFKB

Details ICAO LFKB (BIA)
Name Bastia Poretta
Region France
Timezone Europe/Paris (UTC+1.0)
Stats Elevation 24 ft / 7 m (AMSL)
Location 42.552600° 9.483750°
Runways 1
Magnetic Variation 3.154° E

METAR

LFKB 272030Z AUTO VRB03KT 9999 SCT025 BKN043 BKN058 08/07 Q1005 NOSIG

Decode

TAF

TAF LFKB 272000Z 2721/2821 VRB02KT 9999 BKN025 BKN040 TX16/2813Z TN08/2804Z TEMPO 2803/2812 4000 RA BKN014 FEW040CB BKN040 OVC080 PROB40 TEMPO 2807/2812 BKN008 BKN015 FEW025CB BKN025 BECMG 2808/2811 35010KT PROB40 TEMPO 2818/2821 35016G26KT

Decode

Destination Runways

ID Width Length Bearing (true/mag) Surface Threshold Overrun Markings Lighting
16 148 ft / 45 m 8,273 ft / 2,522 m 162.83° / 159.68° ASPHALT 0 ft / 0 m 102 ft / 31 m APP CENTERLINE EDGE THRESHOLD TDZ REIL-OMNI
34 148 ft / 45 m 8,273 ft / 2,522 m 342.84° / 339.69° ASPHALT 0 ft / 0 m 0 ft / 0 m PREC-APP CENTERLINE EDGE THRESHOLD TDZ REIL-OMNI

Approach Navaids

Runway Type Ident Frequency Range Bearing (true/mag) Slope Elevation
34 GS BP 111.35 MHz 10 nm / 19 km 343.62° / 340.47 ° 3.00° 25 ft / 8 m (AMSL)
34 DME BP 111.35 MHz 18 nm / 33 km - - 69 ft / 21 m (AMSL)
34 LOC-ILS BP 111.35 MHz 18 nm / 33 km 342.81° / 339.66 ° - 25 ft / 8 m (AMSL)

Popular Alternatives